Tracking 22879 objects as of 21-Apr-2021
HD Live streaming from Space Station
objects crossing your sky now

COSMOS 1288

Track COSMOS 1288 now!
10-day predictions
COSMOS 1288 is classified as:


NORAD ID: 12637
Int'l Code: 1981-074B
Perigee: 1,471.2 km
Apogee: 1,499.9 km
Inclination: 74.0 °
Period: 115.5 minutes
Semi major axis: 7856 km
RCS: 0.6864 m2 (medium)
Launch date: August 6, 1981
Source: Commonwealth of Independent States (former USSR) (CIS)
Launch site: PLESETSK MISSILE AND SPACE COMPLEX (PKMTR)
aabbcc
Your satellite tracking list
Your tracking list is empty




NASA's NSSDC Master Catalog

Two Line Element Set (TLE):
1 12637U 81074B   21110.90437009 -.00000005  00000-0  71781-4 0  9990
2 12637  74.0327  75.1966 0018240 209.3489 210.3591 12.46676067806930
Source of the keplerian elements: AFSPC